EW4351 Weather Reports


time (UTC)temp
F
wind
direction
speed
knots
gust
knots
rain 1hr
in
rain 24hr
in
rain mn
in
humidity
%
barometer
mb
20260507132725 53 266 0.0 0.0 0.00 0.70 0.13 82 1006.3
20260507131136 53 267 0.0 0.0 0.00 0.70 0.13 85 1006.0
20260507125557 52 241 0.0 0.0 0.00 0.70 0.13 88 1006.1
20260507124026 51 217 0.0 0.0 0.00 0.70 0.13 90 1005.7
20260507122503 49 121 0.0 0.0 0.00 0.70 0.13 92 1005.6
20260507113737 48 300 0.0 0.0 0.00 0.70 0.13 93 1006.1
20260507112219 47 300 0.0 0.0 0.00 0.70 0.13 93 1006.5
20260507110702 47 300 0.0 0.0 0.00 0.70 0.13 93 1006.2
20260507105203 47 300 0.0 0.0 0.00 0.70 0.13 93 1006.3
20260507103656 46 300 0.0 0.0 0.00 0.70 0.13 93 1005.9
20260507102208 46 205 0.0 0.0 0.00 0.70 0.13 93 1005.6
20260507100627 47 205 0.0 0.0 0.00 0.70 0.13 93 1005.1
20260507095140 47 275 0.0 0.0 0.00 0.70 0.13 93 1005.2
20260507093552 47 275 0.0 0.0 0.00 0.70 0.13 93 1004.9
20260507092011 47 275 0.0 0.9 0.00 0.70 0.13 93 1005.4
20260507084857 48 274 0.0 0.9 0.00 0.70 0.13 94 1005.3
20260507083433 48 202 0.0 0.0 0.00 0.70 0.13 94 1004.9
20260507082005 48 242 0.0 0.0 0.00 0.70 0.13 94 1004.8
20260507080537 48 242 0.0 0.0 0.00 0.70 0.13 94 1004.8
20260507075110 49 263 0.0 0.0 0.00 0.70 0.13 93 1004.9
20260507073554 49 328 0.0 0.0 0.00 0.70 0.13 93 1004.7
20260507064751 50 209 0.0 0.0 0.00 0.69 0.12 94 1004.4
20260507063212 50 209 0.0 0.0 0.00 0.69 0.12 93 1004.5
20260507061710 50 285 0.0 0.0 0.04 0.69 0.12 94 1004.3
20260507060207 51 295 0.0 0.0 0.18 0.68 0.12 93 1003.7
20260507054618 51 217 0.0 0.9 0.27 0.62 0.06 94 1005.1
20260507051508 51 175 0.0 0.9 0.00 0.57 0.00 93 1004.0
20260507045940 52 179 0.0 4.3 0.00 0.57 0.00 94 1004.2
20260507044435 52 189 0.0 2.6 0.00 0.58 0.00 93 1004.3
20260507041249 52 157 0.9 4.3 0.00 0.58 0.00 93 1004.2
20260507035717 52 212 1.7 6.1 0.00 0.58 0.57 93 1004.5
20260507034255 52 209 2.6 7.8 0.00 0.58 0.57 93 1004.7
20260507032725 52 178 2.6 7.0 0.00 0.58 0.57 93 1004.6
20260507031236 53 185 2.6 8.7 0.00 0.58 0.57 93 1004.7
20260507025744 53 200 3.5 6.1 0.00 0.56 0.57 93 1005.1
20260507024245 54 188 2.6 7.8 0.00 0.56 0.57 93 1005.5
20260507022724 54 178 3.5 7.8 0.06 0.55 0.57 93 1005.7
20260507015522 54 175 2.6 8.7 0.12 0.52 0.52 93 1005.8
20260507014048 54 183 2.6 8.7 0.18 0.51 0.51 93 1006.1
20260507012543 55 163 2.6 8.7 0.40 0.43 0.45 93 1006.5
20260507011004 54 165 1.7 6.1 0.13 0.36 0.37 93 1006.7
20260507003842 54 173 0.9 5.2 0.17 0.26 0.27 92 1007.3
20260507002406 54 172 0.9 4.3 0.15 0.24 0.24 92 1007.3
20260507000908 54 186 2.6 7.8 0.13 0.19 0.19 92 1007.5
20260506235418 54 180 2.6 7.8 0.13 0.16 0.17 92 1007.6
20260506233932 54 202 1.7 4.3 0.05 0.13 0.13 92 1007.6
20260506232344 54 178 2.6 7.0 0.05 0.10 0.10 92 1007.7
20260506230836 54 176 1.7 6.1 0.00 0.09 0.10 92 1008.0
20260506225305 54 181 1.7 4.3 0.00 0.09 0.09 92 1007.9
20260506223814 54 184 0.0 3.5 0.06 0.09 0.09 92 1008.2
20260506222233 54 184 1.7 5.2 0.04 0.06 0.08 91 1008.0
20260506220803 54 195 2.6 7.0 0.13 0.06 0.06 92 1008.6
20260506215214 54 198 2.6 6.1 0.13 0.04 0.04 91 1008.9
20260506212124 54 185 0.0 3.5 0.00 0.01 0.01 90 1009.2
20260506210621 54 186 0.9 4.3 0.00 0.01 0.01 89 1009.4
20260506205058 55 188 1.7 6.1 0.00 0.01 0.01 87 1009.5
20260506203535 56 182 1.7 11.3 0.00 0.01 0.01 86 1009.1
20260506202009 56 170 4.3 10.4 0.00 0.01 0.01 86 1009.1
20260506194853 56 178 3.5 7.8 0.00 0.01 0.01 85 1008.7
20260506193332 57 188 0.9 7.0 0.00 0.01 0.01 84 1009.1
20260506191747 57 167 0.9 10.4 0.00 0.01 0.01 84 1009.2
20260506190303 57 163 1.7 7.8 0.00 0.01 0.01 84 1009.4
20260506184839 57 171 2.6 8.7 0.00 0.01 0.01 85 1009.3
20260506183413 57 157 1.7 7.0 0.00 0.01 0.01 84 1009.5
20260506181922 57 187 0.0 7.0 0.00 0.01 0.01 84 1009.5
20260506180349 58 200 0.0 5.2 0.00 0.01 0.01 83 1009.6
20260506173340 59 198 0.9 1.7 0.00 0.01 0.01 83 1010.0
20260506171830 59 188 0.9 7.8 0.00 0.01 0.01 82 1010.1
20260506164607 59 171 0.9 10.4 0.00 0.01 0.01 82 1010.3
20260506163143 60 196 1.7 9.6 0.00 0.01 0.01 83 1010.7
20260506161624 60 198 4.3 11.3 0.00 0.01 0.01 82 1010.8
20260506160058 61 175 2.6 10.4 0.00 0.01 0.01 83 1010.8
20260506154559 60 188 0.9 0.0 0.00 0.01 0.01 84 1010.7
20260506153046 59 163 0.0 1.7 0.00 0.01 0.01 84 1010.5
20260506145901 56 161 2.6 7.8 0.00 0.01 0.01 87 1011.0
20260506144345 56 166 3.5 7.8 0.00 0.01 0.01 88 1011.5
20260506141208 56 161 0.0 0.0 0.00 0.01 0.01 88 1011.5
20260506135720 56 178 0.0 0.0 0.00 0.01 0.01 88 1011.4